UTA7775 USRO-USTR

Flight info

Callsign UTA7775
Flight time N/A
Altitude 38000
Route DINOL2G DINOL T797 NERUG NERUG1L
Aircraft B738/M-SDE2E3FGHIRWXY/LB1

Departure

Time 2026-04-20 04:48
Airport Noyabrsk Airport (USRO)

Arrival

Time N/A
Airport Roshchino International Airport (USTR)
Time Latitude Longitude Altitude Speed Heading
2026-04-20 04:25 63.17845 75.26935 458 ft 0 kts 242°
2026-04-20 04:41 63.17844 75.26935 458 ft 0 kts 242°
2026-04-20 04:43 63.17835 75.26899 456 ft 4 kts 239°
2026-04-20 04:43 63.17820 75.26845 456 ft 4 kts 239°
2026-04-20 04:43 63.17806 75.26789 458 ft 4 kts 238°
2026-04-20 04:44 63.17796 75.26726 458 ft 6 kts 266°
2026-04-20 04:44 63.17812 75.26611 457 ft 9 kts 293°
2026-04-20 04:44 63.17831 75.26524 458 ft 0 kts 295°
2026-04-20 04:44 63.17832 75.26520 458 ft 0 kts 295°
2026-04-20 04:45 63.17835 75.26503 458 ft 11 kts 295°
2026-04-20 04:45 63.17832 75.26341 458 ft 10 kts 230°
2026-04-20 04:45 63.17777 75.26264 459 ft 12 kts 206°
2026-04-20 04:45 63.17693 75.26176 458 ft 14 kts 205°
2026-04-20 04:46 63.17606 75.26088 457 ft 14 kts 204°
2026-04-20 04:46 63.17520 75.26008 458 ft 13 kts 198°
2026-04-20 04:46 63.17431 75.25977 459 ft 13 kts 178°
2026-04-20 04:46 63.17371 75.25875 460 ft 10 kts 272°
2026-04-20 04:47 63.17406 75.25860 457 ft 7 kts 47°
2026-04-20 04:47 63.17438 75.25913 457 ft 14 kts 27°
2026-04-20 04:47 63.17888 75.26374 457 ft 125 kts 25°
2026-04-20 04:47 63.18926 75.27456 824 ft 191 kts 26°
2026-04-20 04:48 63.20185 75.28706 1683 ft 209 kts
2026-04-20 04:48 63.21621 75.28393 2314 ft 228 kts 344°
2026-04-20 04:48 63.23110 75.26792 3012 ft 248 kts 322°
2026-04-20 04:48 63.24158 75.23513 3656 ft 276 kts 286°
2026-04-20 04:49 63.24070 75.19442 5121 ft 267 kts 250°
2026-04-20 04:49 63.23053 75.16094 5861 ft 262 kts 220°
2026-04-20 04:49 63.21440 75.14420 5982 ft 258 kts 189°
2026-04-20 04:49 63.19665 75.14305 6000 ft 253 kts 187°
2026-04-20 04:50 63.18135 75.12671 5993 ft 243 kts 229°
2026-04-20 04:50 63.17437 75.09412 6027 ft 234 kts 263°
2026-04-20 04:50 63.17694 75.05958 6001 ft 228 kts 301°
2026-04-20 04:50 63.18552 75.03003 6017 ft 230 kts 303°
2026-04-20 04:51 63.19068 74.99664 5988 ft 234 kts 269°
2026-04-20 04:51 63.18501 74.96216 6020 ft 253 kts 231°
2026-04-20 04:51 63.17023 74.94053 6004 ft 260 kts 197°
2026-04-20 04:51 63.15256 74.93190 6007 ft 260 kts 192°
2026-04-20 04:52 63.13500 74.92325 5983 ft 257 kts 194°
2026-04-20 04:52 63.11773 74.91324 5984 ft 255 kts 196°
2026-04-20 04:52 63.10076 74.90208 5994 ft 253 kts 198°
2026-04-20 04:52 63.08402 74.89011 5992 ft 253 kts 199°
2026-04-20 04:53 63.06736 74.87751 5991 ft 253 kts 200°
2026-04-20 04:53 63.05073 74.86448 5997 ft 254 kts 200°
2026-04-20 04:53 63.03407 74.85110 5998 ft 255 kts 201°
2026-04-20 04:53 63.01757 74.83767 6007 ft 256 kts 201°
2026-04-20 04:54 63.00086 74.82394 5994 ft 257 kts 201°
2026-04-20 04:54 62.98404 74.81010 5987 ft 258 kts 201°
2026-04-20 04:54 62.96725 74.79614 5991 ft 258 kts 201°
2026-04-20 04:54 62.95045 74.78215 6004 ft 258 kts 201°
2026-04-20 04:55 62.93364 74.76815 5992 ft 258 kts 201°
2026-04-20 04:55 62.91683 74.75417 5984 ft 258 kts 201°
2026-04-20 04:55 62.90002 74.74019 5985 ft 258 kts 201°
2026-04-20 04:55 62.88328 74.72628 5992 ft 257 kts 201°
2026-04-20 04:56 62.86651 74.71238 5988 ft 257 kts 201°
2026-04-20 04:56 62.85002 74.69872 5988 ft 256 kts 201°
2026-04-20 04:56 62.83330 74.68490 5989 ft 256 kts 201°
2026-04-20 04:56 62.81725 74.66833 5983 ft 255 kts 214°
2026-04-20 04:57 62.80284 74.64596 5994 ft 254 kts 218°
2026-04-20 04:57 62.78880 74.62253 5992 ft 254 kts 219°
2026-04-20 04:57 62.77474 74.59902 5981 ft 254 kts 218°
2026-04-20 04:57 62.76066 74.57569 5979 ft 254 kts 218°
2026-04-20 04:58 62.74650 74.55244 6002 ft 254 kts 218°
2026-04-20 04:58 62.73231 74.52932 5980 ft 255 kts 218°
2026-04-20 04:58 62.71805 74.50622 5982 ft 255 kts 218°
2026-04-20 04:58 62.70379 74.48321 5992 ft 255 kts 218°
2026-04-20 04:59 62.68947 74.46021 6000 ft 256 kts 218°
2026-04-20 04:59 62.67516 74.43727 5989 ft 256 kts 217°
2026-04-20 04:59 62.66084 74.41435 5997 ft 256 kts 217°
2026-04-20 04:59 62.64650 74.39144 6026 ft 256 kts 217°
2026-04-20 05:00 62.63204 74.36840 6497 ft 261 kts 217°
2026-04-20 05:00 62.61745 74.34517 7642 ft 258 kts 218°
2026-04-20 05:00 62.60295 74.32206 8772 ft 258 kts 218°
2026-04-20 05:00 62.58863 74.29912 9833 ft 262 kts 217°
2026-04-20 05:01 62.57366 74.27540 10604 ft 276 kts 217°
2026-04-20 05:01 62.55727 74.24953 10863 ft 306 kts 217°
2026-04-20 05:01 62.53940 74.22133 11302 ft 326 kts 217°
2026-04-20 05:01 62.52085 74.19205 12163 ft 332 kts 217°
2026-04-20 05:02 62.50210 74.16242 13139 ft 335 kts 218°
2026-04-20 05:02 62.48314 74.13247 14113 ft 339 kts 218°
2026-04-20 05:02 62.46403 74.10231 14958 ft 342 kts 218°
2026-04-20 05:02 62.44466 74.07179 15826 ft 345 kts 219°
2026-04-20 05:03 62.42514 74.04107 16703 ft 349 kts 219°
2026-04-20 05:03 62.40539 74.01004 17540 ft 352 kts 220°
2026-04-20 05:03 62.38549 73.97883 18382 ft 356 kts 220°
2026-04-20 05:03 62.36532 73.94723 19137 ft 359 kts 220°
2026-04-20 05:04 62.34501 73.91549 19878 ft 362 kts 221°
2026-04-20 05:04 62.32482 73.88401 20617 ft 364 kts 221°
2026-04-20 05:04 62.30395 73.85150 21348 ft 367 kts 222°
2026-04-20 05:04 62.28350 73.81970 22037 ft 370 kts 222°
2026-04-20 05:05 62.26256 73.78719 22707 ft 372 kts 223°
2026-04-20 05:05 62.24154 73.75464 23437 ft 374 kts 223°
2026-04-20 05:05 62.22030 73.72178 24063 ft 377 kts 223°
2026-04-20 05:05 62.19894 73.68877 24551 ft 381 kts 223°
2026-04-20 05:06 62.17730 73.65539 25026 ft 385 kts 223°
2026-04-20 05:06 62.15543 73.62177 25484 ft 388 kts 223°
2026-04-20 05:06 62.13346 73.58761 26003 ft 390 kts 224°
2026-04-20 05:06 62.11161 73.55288 26478 ft 393 kts 225°
2026-04-20 05:07 62.08963 73.51774 26923 ft 397 kts 225°
2026-04-20 05:07 62.06750 73.48248 27459 ft 398 kts 225°
2026-04-20 05:07 62.04532 73.44733 28116 ft 395 kts 225°
2026-04-20 05:07 62.02333 73.41259 28796 ft 394 kts 225°
2026-04-20 05:08 62.00125 73.37776 29378 ft 394 kts 225°
2026-04-20 05:08 61.97919 73.34306 29928 ft 394 kts 225°
2026-04-20 05:08 61.95710 73.30836 30346 ft 397 kts 225°
2026-04-20 05:09 61.91242 73.23850 30318 ft 394 kts 225°
2026-04-20 05:09 61.86854 73.17025 30340 ft 391 kts 225°
2026-04-20 05:10 61.82449 73.10174 30336 ft 394 kts 225°